Time,TemperatureF,DewpointF,PressureIn,WindDirection,WindDirectionDegrees,WindSpeedMPH,WindSpeedGustMPH,Humidity,HourlyPrecipIn,Conditions,Clouds,dailyrainin,SolarRadiationWatts/m^2,SoftwareType,DateUTC
2013-12-20 00:02:00,56.0,49.0,-100.00,South,177,6.0,12.0,77,0.00,,,0.00,0.000000,,2013-12-20 06:02:00,
2013-12-20 00:12:00,56.0,49.0,-100.00,South,177,6.0,12.0,77,0.00,,,0.00,0.000000,,2013-12-20 06:12:00,
2013-12-20 00:43:00,56.0,50.0,-100.00,South,171,6.0,11.0,79,0.00,,,0.00,0.000000,,2013-12-20 06:43:00,
2013-12-20 00:52:00,56.0,50.0,-100.00,South,171,6.0,11.0,79,0.00,,,0.00,0.000000,,2013-12-20 06:52:00,
2013-12-20 01:02:00,56.0,50.0,-100.00,South,171,6.0,11.0,79,0.00,,,0.00,0.000000,,2013-12-20 07:02:00,
2013-12-20 01:12:00,56.0,50.0,-100.00,South,171,6.0,11.0,79,0.00,,,0.00,0.000000,,2013-12-20 07:12:00,
2013-12-20 01:43:00,56.0,50.0,-100.00,SSE,166,6.0,12.0,80,0.00,,,0.00,0.000000,,2013-12-20 07:43:00,
2013-12-20 01:52:00,56.0,50.0,-100.00,SSE,166,6.0,12.0,80,0.00,,,0.00,0.000000,,2013-12-20 07:52:00,
2013-12-20 02:02:00,56.0,50.0,-100.00,SSE,166,6.0,12.0,80,0.00,,,0.00,0.000000,,2013-12-20 08:02:00,
2013-12-20 02:12:00,56.0,50.0,-100.00,SSE,166,6.0,12.0,80,0.00,,,0.00,0.000000,,2013-12-20 08:12:00,
2013-12-20 02:42:00,57.0,51.0,-100.00,SSE,163,6.0,13.0,81,0.00,,,0.00,0.000000,,2013-12-20 08:42:00,
2013-12-20 02:52:00,57.0,51.0,-100.00,SSE,163,6.0,13.0,81,0.00,,,0.00,0.000000,,2013-12-20 08:52:00,
2013-12-20 03:03:00,57.0,51.0,-100.00,SSE,163,6.0,13.0,81,0.00,,,0.00,0.000000,,2013-12-20 09:03:00,
2013-12-20 03:11:00,57.0,51.0,-100.00,SSE,163,6.0,13.0,81,0.00,,,0.00,0.000000,,2013-12-20 09:11:00,
2013-12-20 03:43:00,57.0,52.0,-100.00,South,171,6.0,10.0,82,0.00,,,0.00,0.000000,,2013-12-20 09:43:00,
2013-12-20 03:53:00,57.0,52.0,-100.00,South,171,6.0,10.0,82,0.00,,,0.00,0.000000,,2013-12-20 09:53:00,
2013-12-20 04:03:00,57.0,52.0,-100.00,South,171,6.0,10.0,82,0.00,,,0.00,0.000000,,2013-12-20 10:03:00,
2013-12-20 04:12:00,57.0,52.0,-100.00,South,171,6.0,10.0,82,0.00,,,0.00,0.000000,,2013-12-20 10:12:00,
2013-12-20 04:43:00,57.0,52.0,-100.00,SSE,166,5.0,10.0,84,0.00,,,0.00,0.000000,,2013-12-20 10:43:00,
2013-12-20 04:53:00,57.0,52.0,-100.00,SSE,166,5.0,10.0,84,0.00,,,0.00,0.000000,,2013-12-20 10:53:00,
2013-12-20 05:03:00,57.0,52.0,-100.00,SSE,166,5.0,10.0,84,0.00,,,0.00,0.000000,,2013-12-20 11:03:00,
2013-12-20 05:12:00,57.0,52.0,-100.00,SSE,166,5.0,10.0,84,0.00,,,0.00,0.000000,,2013-12-20 11:12:00,
2013-12-20 05:42:00,56.0,52.0,-100.00,South,170,5.0,11.0,86,0.00,,,0.00,0.000000,,2013-12-20 11:42:00,
2013-12-20 05:53:00,56.0,52.0,-100.00,South,170,5.0,11.0,86,0.00,,,0.00,0.000000,,2013-12-20 11:53:00,
2013-12-20 06:02:00,56.0,52.0,-100.00,South,170,5.0,11.0,86,0.00,,,0.00,0.000000,,2013-12-20 12:02:00,
2013-12-20 06:12:00,56.0,52.0,-100.00,South,170,5.0,11.0,86,0.00,,,0.00,0.000000,,2013-12-20 12:12:00,
2013-12-20 06:43:00,57.0,53.0,-100.00,SSE,167,5.0,10.0,87,0.00,,,0.00,0.000000,,2013-12-20 12:43:00,
2013-12-20 06:52:00,57.0,53.0,-100.00,SSE,167,5.0,10.0,87,0.00,,,0.00,0.000000,,2013-12-20 12:52:00,
2013-12-20 07:01:00,57.0,53.0,-100.00,SSE,167,5.0,10.0,87,0.00,,,0.00,0.000000,,2013-12-20 13:01:00,
2013-12-20 07:11:00,57.0,53.0,-100.00,SSE,167,5.0,10.0,87,0.00,,,0.00,0.000000,,2013-12-20 13:11:00,
2013-12-20 07:42:00,58.0,54.0,-100.00,South,171,5.0,11.0,87,0.00,,,0.00,0.000000,,2013-12-20 13:42:00,
2013-12-20 07:53:00,58.0,54.0,-100.00,South,171,5.0,11.0,87,0.00,,,0.00,0.000000,,2013-12-20 13:53:00,
2013-12-20 08:02:00,58.0,54.0,-100.00,South,171,5.0,11.0,87,0.00,,,0.00,0.000000,,2013-12-20 14:02:00,
2013-12-20 08:11:00,58.0,54.0,-100.00,South,171,5.0,11.0,87,0.00,,,0.00,0.000000,,2013-12-20 14:11:00,
2013-12-20 08:42:00,60.0,55.0,-100.00,SW,221,8.0,12.0,85,0.00,,,0.00,3.000000,,2013-12-20 14:42:00,
2013-12-20 08:52:00,60.0,55.0,-100.00,SW,221,8.0,12.0,85,0.00,,,0.00,3.000000,,2013-12-20 14:52:00,
2013-12-20 09:02:00,60.0,55.0,-100.00,SW,221,8.0,12.0,85,0.00,,,0.00,3.000000,,2013-12-20 15:02:00,
2013-12-20 09:11:00,60.0,55.0,-100.00,SW,221,8.0,12.0,85,0.00,,,0.00,3.000000,,2013-12-20 15:11:00,
2013-12-20 09:13:00,46.0,42.0,-100.00,WNW,299,9.0,18.0,86,0.00,,,0.00,34.000000,,2013-12-20 15:13:00,
2013-12-20 09:54:00,46.0,42.0,-100.00,WNW,299,9.0,18.0,86,0.00,,,0.00,34.000000,,2013-12-20 15:54:00,
2013-12-20 10:03:00,46.0,42.0,-100.00,WNW,299,9.0,18.0,86,0.00,,,0.00,34.000000,,2013-12-20 16:03:00,
2013-12-20 10:43:00,42.0,39.0,-100.00,NW,314,8.0,12.0,89,0.00,,,0.00,73.000000,,2013-12-20 16:43:00,
2013-12-20 10:53:00,42.0,39.0,-100.00,NW,314,8.0,12.0,89,0.00,,,0.00,73.000000,,2013-12-20 16:53:00,
2013-12-20 11:02:00,42.0,39.0,-100.00,NW,314,8.0,12.0,89,0.00,,,0.00,73.000000,,2013-12-20 17:02:00,
2013-12-20 11:12:00,42.0,39.0,-100.00,NW,314,8.0,12.0,89,0.00,,,0.00,73.000000,,2013-12-20 17:12:00,
2013-12-20 11:42:00,38.0,36.0,-100.00,WNW,287,8.0,14.0,93,0.00,,,0.00,60.000000,,2013-12-20 17:42:00,
2013-12-20 11:52:00,38.0,36.0,-100.00,WNW,287,8.0,14.0,93,0.00,,,0.00,60.000000,,2013-12-20 17:52:00,
2013-12-20 12:02:00,38.0,36.0,-100.00,WNW,287,8.0,14.0,93,0.00,,,0.00,60.000000,,2013-12-20 18:02:00,
2013-12-20 12:12:00,38.0,36.0,-100.00,WNW,287,8.0,14.0,93,0.00,,,0.00,60.000000,,2013-12-20 18:12:00,
2013-12-20 12:42:00,36.0,35.0,-100.00,WNW,287,7.0,12.0,95,0.00,,,-99.99,55.000000,,2013-12-20 18:42:00,
2013-12-20 12:52:00,36.0,35.0,-100.00,WNW,287,7.0,12.0,95,0.00,,,-99.99,55.000000,,2013-12-20 18:52:00,
2013-12-20 13:02:00,36.0,35.0,-100.00,WNW,287,7.0,12.0,95,0.00,,,-99.99,55.000000,,2013-12-20 19:02:00,
2013-12-20 13:12:00,36.0,35.0,-100.00,WNW,287,7.0,12.0,95,0.00,,,-99.99,55.000000,,2013-12-20 19:12:00,
2013-12-20 13:42:00,35.0,33.0,-100.00,WNW,295,8.0,15.0,94,0.00,,,0.00,55.000000,,2013-12-20 19:42:00,
2013-12-20 13:52:00,35.0,33.0,-100.00,WNW,295,8.0,15.0,94,0.00,,,0.00,55.000000,,2013-12-20 19:52:00,
2013-12-20 14:02:00,35.0,33.0,-100.00,WNW,295,8.0,15.0,94,0.00,,,0.00,55.000000,,2013-12-20 20:02:00,
2013-12-20 14:11:00,35.0,33.0,-100.00,WNW,295,8.0,15.0,94,0.00,,,0.00,55.000000,,2013-12-20 20:11:00,
2013-12-20 14:42:00,34.0,32.0,-100.00,West,279,6.0,12.0,94,0.00,,,0.00,42.000000,,2013-12-20 20:42:00,
2013-12-20 14:52:00,34.0,32.0,-100.00,West,279,6.0,12.0,94,0.00,,,0.00,42.000000,,2013-12-20 20:52:00,
2013-12-20 15:02:00,34.0,32.0,-100.00,West,279,6.0,12.0,94,0.00,,,0.00,42.000000,,2013-12-20 21:02:00,
2013-12-20 15:12:00,34.0,32.0,-100.00,West,279,6.0,12.0,94,0.00,,,0.00,42.000000,,2013-12-20 21:12:00,
2013-12-20 15:13:00,32.0,31.0,-100.00,West,278,5.0,11.0,95,0.00,,,0.00,30.000000,,2013-12-20 21:13:00,
2013-12-20 15:43:00,32.0,31.0,-100.00,West,278,5.0,11.0,95,0.00,,,0.00,30.000000,,2013-12-20 21:43:00,
2013-12-20 15:53:00,32.0,31.0,-100.00,West,278,5.0,11.0,95,0.00,,,0.00,30.000000,,2013-12-20 21:53:00,
2013-12-20 16:03:00,32.0,31.0,-100.00,West,278,5.0,11.0,95,0.00,,,0.00,30.000000,,2013-12-20 22:03:00,
2013-12-20 16:43:00,31.0,30.0,-100.00,WNW,293,5.0,11.0,95,0.00,,,0.00,19.000000,,2013-12-20 22:43:00,
2013-12-20 16:53:00,31.0,30.0,-100.00,WNW,293,5.0,11.0,95,0.00,,,0.00,19.000000,,2013-12-20 22:53:00,
2013-12-20 17:03:00,31.0,30.0,-100.00,WNW,293,5.0,11.0,95,0.00,,,0.00,19.000000,,2013-12-20 23:03:00,
2013-12-20 17:12:00,31.0,30.0,-100.00,WNW,293,5.0,11.0,95,0.00,,,0.00,19.000000,,2013-12-20 23:12:00,
2013-12-20 17:43:00,31.0,30.0,-100.00,WNW,295,5.0,8.0,95,0.00,,,0.00,4.000000,,2013-12-20 23:43:00,
2013-12-20 17:53:00,31.0,30.0,-100.00,WNW,295,5.0,8.0,95,0.00,,,0.00,4.000000,,2013-12-20 23:53:00,
2013-12-20 18:02:00,31.0,30.0,-100.00,WNW,295,5.0,8.0,95,0.00,,,0.00,4.000000,,2013-12-21 00:02:00,
2013-12-20 18:11:00,31.0,30.0,-100.00,WNW,295,5.0,8.0,95,0.00,,,0.00,4.000000,,2013-12-21 00:11:00,
2013-12-20 18:42:00,30.0,29.0,-100.00,West,276,6.0,9.0,96,0.00,,,0.00,0.000000,,2013-12-21 00:42:00,
2013-12-20 18:52:00,30.0,29.0,-100.00,West,276,6.0,9.0,96,0.00,,,0.00,0.000000,,2013-12-21 00:52:00,
2013-12-20 19:02:00,30.0,29.0,-100.00,West,276,6.0,9.0,96,0.00,,,0.00,0.000000,,2013-12-21 01:02:00,
2013-12-20 19:11:00,30.0,29.0,-100.00,West,276,6.0,9.0,96,0.00,,,0.00,0.000000,,2013-12-21 01:11:00,
2013-12-20 19:42:00,29.0,28.0,-100.00,WNW,299,4.0,8.0,96,0.00,,,0.00,0.000000,,2013-12-21 01:42:00,
2013-12-20 19:52:00,29.0,28.0,-100.00,WNW,299,4.0,8.0,96,0.00,,,0.00,0.000000,,2013-12-21 01:52:00,
2013-12-20 20:02:00,29.0,28.0,-100.00,WNW,299,4.0,8.0,96,0.00,,,0.00,0.000000,,2013-12-21 02:02:00,
2013-12-20 20:12:00,29.0,28.0,-100.00,WNW,299,4.0,8.0,96,0.00,,,0.00,0.000000,,2013-12-21 02:12:00,
2013-12-20 20:42:00,29.0,28.0,-100.00,WNW,302,5.0,9.0,96,0.00,,,0.00,0.000000,,2013-12-21 02:42:00,
2013-12-20 20:52:00,29.0,28.0,-100.00,WNW,302,5.0,9.0,96,0.00,,,0.00,0.000000,,2013-12-21 02:52:00,
2013-12-20 21:02:00,29.0,28.0,-100.00,WNW,302,5.0,9.0,96,0.00,,,0.00,0.000000,,2013-12-21 03:02:00,
2013-12-20 21:11:00,29.0,28.0,-100.00,WNW,302,5.0,9.0,96,0.00,,,0.00,0.000000,,2013-12-21 03:11:00,
2013-12-20 21:43:00,29.0,28.0,-100.00,WNW,289,3.0,6.0,95,0.00,,,0.00,0.000000,,2013-12-21 03:43:00,
2013-12-20 21:53:00,29.0,28.0,-100.00,WNW,289,3.0,6.0,95,0.00,,,0.00,0.000000,,2013-12-21 03:53:00,
2013-12-20 22:03:00,29.0,28.0,-100.00,WNW,289,3.0,6.0,95,0.00,,,0.00,0.000000,,2013-12-21 04:03:00,
2013-12-20 22:12:00,29.0,28.0,-100.00,WNW,289,3.0,6.0,95,0.00,,,0.00,0.000000,,2013-12-21 04:12:00,
2013-12-20 22:43:00,29.0,27.0,-100.00,NW,304,3.0,6.0,94,0.00,,,0.00,0.000000,,2013-12-21 04:43:00,
2013-12-20 22:52:00,29.0,27.0,-100.00,NW,304,3.0,6.0,94,0.00,,,0.00,0.000000,,2013-12-21 04:52:00,
2013-12-20 23:02:00,29.0,27.0,-100.00,NW,304,3.0,6.0,94,0.00,,,0.00,0.000000,,2013-12-21 05:02:00,
2013-12-20 23:12:00,29.0,27.0,-100.00,NW,304,3.0,6.0,94,0.00,,,0.00,0.000000,,2013-12-21 05:12:00,
2013-12-20 23:42:00,29.0,27.0,-100.00,NW,315,5.0,9.0,94,0.04,,,0.04,0.000000,,2013-12-21 05:42:00,
2013-12-20 23:52:00,29.0,27.0,-100.00,NW,315,5.0,9.0,94,0.04,,,0.04,0.000000,,2013-12-21 05:52:00,